Starlink 4320

operational
NORAD ID: 53059 Int'l Des: 2022-077 Owner: SPXS Country: US Constellation: starlink
LEOCIRCULARRETROGRADESSO

Starlink 4320について

説明を読み込み中...

リアルタイム位置

3D地球を読み込み中...

次回通過

高度履歴

Altitude vs Time

uPlot chart will show altitude changes over time

軌道要素

1 53059U 22077S 25351.23295459 .00000082 00000-0 10955-4 0 9999
2 53059 97.6020 169.4952 0002734 16.4471 343.6841 15.01261956188544
Epoch: Dec 17, 2025 • Age: 12 hours

現在のステータス

高度 581.9 km
速度 7.57 km/s
衛星直下点 -44.73°S, 10.98°W
打ち上げ日 Jul 11, 2022
運用期間 3.4 years
タイプ internet

技術仕様

分類 Payload
質量 297.00 kg
乾燥質量 275.00 kg
総質量 297.00 kg
長さ 0.20 m
直径 2.80 m
スパン 9.00 m
形状 Box + pan
製造者 SPXS
バスタイプ Starlink
フェーズステータス In Orbit
所有者/国 SPXS/US

大規模コンステレーション

Loading constellations...